Location: Clarion
(42.7316°N, 93.7330°W)
Time: 21:30:56
(UTC+00:00)

DNEPR-1 R/B - Pass Details

Date: 22 April 2026
Orbit: 582 x 1331 km, 64.6° (Epoch: 12 May)

Event Time Altitude Azimuth Distance (km) Brightness Sun altitude
Rises 09:45:33 0° 323° (NW) 3,241 7.2 -16.7°
Reaches altitude 10° 09:47:46 10° 321° (NW) 2,406 6.5 -16.4°
Maximum altitude 09:53:19 69° 239° (WSW) 998 4.3 -15.5°
Drops below altitude 10° 10:00:06 10° 158° (SSE) 2,920 6.9 -14.5°
Sets 10:03:02 0° 156° (SSE) 3,984 7.6 -14.0°
